Flag for United Arab Emirates Weather past 2 weeks in Abu Dhabi, Abu Dhabi, United Arab Emirates

Now
75 °F

Scattered clouds.


Feels Like: 78 °F
Forecast: 61 / 80 °F
Wind: 9 mph from Northwest

Location: Abu Dhabi Bateen Airport

Current Time: Dec 20, 2014 at 3:56:12 PM

Latest Report: Dec 20, 2014 at 3:00 PM


Visibility: N/A

Pressure: 30.07 "Hg

Humidity: 57%

Dew point: 59 °F

Location of Abu DhabiLocation

Historic Weather in Abu Dhabi — Graph

°F

Abu Dhabi temperature yesterday

Maximum temperature yesterday: 77 °F (at 2:00 PM)
Minimum temperature yesterday: 64 °F (at 7:00 AM)
Average temperature yesterday: 70 °F

Past Weeks' High & Low Weather Summary

 TemperatureHumidityPressure
High84 °F (Dec 8, 3:00 PM)100% (Dec 5, 7:00 PM)30.21 "Hg (Dec 5, 7:00 PM)
Low63 °F (Dec 10, 5:00 AM)20% (Dec 14, 2:00 PM)29.98 "Hg (Dec 12, 4:00 AM)
Average73 °F63%30.08 "Hg
* Reported Dec 5 2:00 PM — Dec 20 2:00 PM, Abu Dhabi, Weather by CustomWeather, © 2014

Note: Actual official high and low records may vary slightly from our data, if they occured in-between our weather recording intervals... More about our weather records

Advertising

Abu Dhabi weather history for previous 24 hours

 ConditionsComfort  
Time TempWeatherWind HumidityBarometerVisibility
2:00 PM
Dec 20
75 °FScattered clouds.10 mph57%30.09 "HgN/A
1:00 PM75 °FScattered clouds.8 mph54%30.12 "HgN/A
12:00 PM77 °FScattered clouds.3 mph51%30.15 "HgN/A
11:00 AM75 °FPassing clouds.5 mph57%30.18 "HgN/A
10:00 AM72 °FPassing clouds.3 mph73%30.18 "HgN/A
9:00 AM68 °FPassing clouds.3 mph83%30.15 "Hg5 mi
8:00 AM64 °FPassing clouds.3 mph94%30.15 "Hg4 mi
7:00 AM63 °FPassing clouds.1 mph94%30.12 "Hg4 mi
6:00 AM64 °FPassing clouds.2 mph88%30.12 "Hg4 mi
5:00 AM64 °FPassing clouds.2 mph88%30.12 "Hg4 mi
4:00 AM64 °FPassing clouds.1 mph83%30.12 "Hg4 mi
3:00 AM64 °FPassing clouds.2 mph88%30.12 "Hg5 mi
2:00 AM66 °FPassing clouds.1 mph73%30.12 "HgN/A
1:00 AM66 °FPassing clouds.1 mph73%30.12 "HgN/A
12:00 AM68 °FClear.2 mph73%30.15 "Hg10 mi
11:00 PM
Dec 19
70 °FClear.3 mph69%30.15 "Hg10 mi
10:00 PM70 °FClear.6 mph64%30.15 "Hg10 mi
9:00 PM70 °FClear.7 mph64%30.15 "Hg10 mi
8:00 PM72 °FClear.10 mph61%30.15 "Hg10 mi
7:00 PM72 °FClear.9 mph57%30.12 "Hg10 mi
6:00 PM73 °FClear.10 mph57%30.12 "Hg10 mi
5:00 PM73 °FSunny.10 mph53%30.09 "Hg10 mi
4:00 PM75 °FSunny.10 mph44%30.09 "Hg10 mi
3:00 PM75 °FSunny.3 mph39%30.12 "Hg10 mi
Weather by CustomWeather, © 2014

See weather overviewHow to use our weather pages